FREGAT R/B, 41551

Orbit data source: Space-Track

FREGAT R/B, 41551 is space debris originally from a launch on Tue, 24 May 2016 UTC launched from the French Guiana (FRGUI). Debris objects in space refer to the collection of defunct objects orbiting the Earth. Examples of debris include non-operational satellites, rocket bodies, and fragments generated from explosions, collisions, or faulty payload assembly.

Loading next visibility...
Identifier
41551, 2016-030C
Orbit
Active
Last TLE update
2 days ago
Origin
Manufacturer
Lavochkin
Mission
Spacecraft
Bus & Motor
FREGAT, Unknown motor
Mass
1,050 kg wet, 1,050 kg dry
Launch date (UTC)
2016-05-24 (9 years ago)
Launch vehicle
Unknown
Launch site
French Guiana (FRGUI)
Object type
Payload
Rocket body
Debris
Shape & HBR
Irr, 3.3 m
Radar Cross Section
11.055 m², Large (>1 m²)

Expand to show TLE details & history

TLE from 2 days ago
0 FREGAT R/B
1 41551U 16030C   25182.87531998  .00000025  00000-0  00000-0 0  9991
2 41551  55.1035 234.3804 0022669 232.5964 127.2743  1.67598228 55753
Epoch: 2025-07-01T21:00Z
TLE epoch observation values (Epoch: 2025-07-01T21:00:27.646Z)
Latitude
Longitude
-0.88503°
Altitude
23,601.304 km
Speed
3.644 km/s
True Right ascension
15h 37m 34s
True Declination
0° 00' 00"
Sunlit
Object was in daylight at epoch
Visualization orbit readout
Latitude
-53.97815°
Longitude
-107.57141°
Altitude
23,519.442 km
Speed
3.655 km/s
Apparent Right ascension
09h 11m 07s
Apparent Declination
-53° 10' 55"
Sunlit
Object is in daylight
Visualization observer readout
Local Sidereal Time
23:46:45
Azimuth
129.906° SE
Elevation
-60.615°
Doppler factor
1
Orbital elements
Apogee altitude
23,627.696 km
Perigee altitude
23,491.963 km
Semi-major axis
29,937.967 km
Eccentricity
0.00227
Inclination
55.1035°
RAAN
234.3804°
Arg. of periapsis
232.5964°
True anomaly
Unknown
Mean anomaly
127.2743°
Eccentric anomaly
Unknown
Mean motion
0.419 °/min
Orbital period
859.2 mins
BSTAR
0
Loading maneuver chart data...
Loading SW <> Apogee altitude chart data...
Loading historical data...
Loading historical data...
Loading historical data...
Loading historical data...
Loading historical data...
Loading historical data...
Loading historical data...
Other satellites on launch #30 in the year 2016 (2016-05-24 UTC)

FREGAT R/B Visibility forecast

Observer location: undefined°, undefined°

Span
Click to sort rows by Start time (UTC) header in descending order
Start Az.
Max El. time (UTC)
Max El. Az.
Max El.
End time (UTC)
End Az.
396 mins2025-07-04 05:24:10.280Z218.487° SW2025-07-04 10:02:10.280Z6.756° NNE43.371°2025-07-04 12:00:10.280Z100.562° ESE
|